Weather History for Kendall, FL

Change the Weather History Date:

Wednesday, January 2, 2013

  Actual Average Record
Temperature  
Mean Temperature 70 °F -  
Max Temperature 81 °F 77 °F 85 °F (1990)
Min Temperature 60 °F 56 °F 39 °F (2008)
Cooling Degree Days 6    
Growing Degree Days 20 (Base 50)    
Moisture  
Dew Point 64 °F    
Average Humidity 82    
Maximum Humidity 97    
Minimum Humidity 58    
Precipitation  
Precipitation 0.00 in - - ()
Sea Level Pressure  
Sea Level Pressure 30.06 in    
Wind  
Wind Speed 2 mph (SSE)    
Max Wind Speed 9 mph    
Max Gust Speed -    
Visibility 10 miles    
Events      
Averages and records for this station are not official NWS values.
T = Trace of Precipitation, MM = Missing Value Source: NWS Daily Summary

Daily Weather History Graph

Daily Weather History Graph

Search for Another Location

Airport:

Trip Planner

Search our weather history database for the weather conditions in past years. The results will help you decide how hot, cold, wet, or windy it might be!

Date:

Astronomy

Jan. 02, 2013 Rise Set
Actual Time 7:08 AM EST 5:43 PM EST
Civil Twilight 6:43 AM EST 6:08 PM EST
Nautical Twilight 6:14 AM EST 6:37 PM EST
Astronomical Twilight 5:46 AM EST 7:05 PM EST
Moon 10:39 PM EST (1/2) 10:21 AM EST (1/2)
Length of Visible Light 11h 25m
Length of Day
10h 35m
Waning Gibbous, 75% of the Moon is Illuminated
Jan 2
Waning Gibbous
Jan 4
Last Quarter
Jan 11
New
Jan 18
First Quarter
Jan 26
Full

Hourly Weather History & Observations

Time (EST) Temp. Heat Index Dew Point Humidity Pressure Visibility Wind Dir Wind Speed Gust Speed Precip Events Conditions
12:53 AM 64.0 °F - 62.1 °F 93% 30.06 in 10.0 mi Calm Calm - N/A   Clear
1:53 AM 63.0 °F - 62.1 °F 97% 30.05 in 10.0 mi Calm Calm - N/A   Clear
2:53 AM 63.0 °F - 61.0 °F 93% 30.05 in 10.0 mi Calm Calm - N/A   Clear
3:53 AM 60.1 °F - 59.0 °F 96% 30.05 in 10.0 mi Calm Calm - N/A   Clear
4:53 AM 61.0 °F - 60.1 °F 97% 30.05 in 5.0 mi Calm Calm - N/A   Clear
5:53 AM 62.1 °F - 61.0 °F 96% 30.06 in 10.0 mi Calm Calm - N/A   Mostly Cloudy
6:53 AM 62.1 °F - 61.0 °F 96% 30.07 in 10.0 mi Calm Calm - N/A   Clear
7:53 AM 64.0 °F - 63.0 °F 96% 30.08 in 10.0 mi Calm Calm - N/A   Clear
8:53 AM 72.0 °F - 66.9 °F 84% 30.09 in 10.0 mi SSE 3.5 mph - N/A   Clear
9:53 AM 75.9 °F - 64.9 °F 69% 30.11 in 10.0 mi South 8.1 mph - N/A   Clear
10:53 AM 78.1 °F - 64.9 °F 64% 30.10 in 10.0 mi SSE 5.8 mph - N/A   Overcast
11:53 AM 80.1 °F 81.7 °F 64.0 °F 58% 30.07 in 10.0 mi SE 3.5 mph - N/A   Mostly Cloudy
12:53 PM 79.0 °F - 64.9 °F 62% 30.05 in 10.0 mi South 4.6 mph - N/A   Unknown
1:53 PM 81.0 °F 82.7 °F 64.9 °F 58% 30.02 in 10.0 mi South 6.9 mph - N/A   Mostly Cloudy
2:53 PM 79.0 °F - 66.0 °F 64% 30.01 in 10.0 mi SSE 6.9 mph - N/A   Partly Cloudy
3:53 PM 77.0 °F - 66.0 °F 69% 30.01 in 10.0 mi SSE 8.1 mph - N/A   Clear
4:53 PM 77.0 °F - 66.9 °F 71% 30.02 in 10.0 mi SE 9.2 mph - N/A   Scattered Clouds
5:53 PM 73.9 °F - 66.0 °F 76% 30.03 in 10.0 mi SE 5.8 mph - N/A   Clear
6:53 PM 73.9 °F - 66.9 °F 79% 30.04 in 10.0 mi SSE 5.8 mph - N/A   Mostly Cloudy
7:53 PM 72.0 °F - 66.9 °F 84% 30.06 in 10.0 mi SE 3.5 mph - N/A   Clear
8:53 PM 72.0 °F - 68.0 °F 87% 30.07 in 10.0 mi Calm Calm - N/A   Mostly Cloudy
9:53 PM 71.1 °F - 66.9 °F 87% 30.08 in 10.0 mi Calm Calm - N/A   Mostly Cloudy
10:53 PM 70.0 °F - 66.9 °F 90% 30.07 in 10.0 mi SSE 4.6 mph - N/A   Clear
11:53 PM 68.0 °F - 66.0 °F 93% 30.07 in 10.0 mi North 3.5 mph - N/A   Mostly Cloudy